Time,TemperatureF,DewpointF,PressureIn,WindDirection,WindDirectionDegrees,WindSpeedMPH,WindSpeedGustMPH,Humidity,HourlyPrecipIn,Conditions,Clouds,dailyrainin,SoftwareType,DateUTC
2013-01-11 00:02:00,15.0,10.0,29.87,SSW,199,0.0,0.0,81,0.00,,,0.00,,2013-01-11 08:02:00,
2013-01-11 00:11:00,15.0,10.0,29.87,SW,236,0.0,0.0,81,0.00,,,0.00,,2013-01-11 08:11:00,
2013-01-11 00:22:00,15.0,10.0,29.87,SW,236,0.0,0.0,81,0.00,,,0.00,,2013-01-11 08:22:00,
2013-01-11 00:32:00,14.0,9.0,29.87,South,185,1.0,6.0,79,0.00,,,0.00,,2013-01-11 08:32:00,
2013-01-11 00:42:00,14.0,9.0,29.87,South,185,1.0,6.0,79,0.00,,,0.00,,2013-01-11 08:42:00,
2013-01-11 00:52:00,14.0,8.0,29.87,SW,223,0.0,3.0,78,0.00,,,0.00,,2013-01-11 08:52:00,
2013-01-11 01:02:00,14.0,8.0,29.88,SW,217,0.0,0.0,78,0.00,,,0.00,,2013-01-11 09:02:00,
2013-01-11 01:11:00,14.0,8.0,29.88,SW,217,0.0,0.0,78,0.00,,,0.00,,2013-01-11 09:11:00,
2013-01-11 01:22:00,13.0,7.0,29.88,South,189,0.0,4.0,78,0.00,,,0.00,,2013-01-11 09:22:00,
2013-01-11 01:32:00,14.0,9.0,29.88,SSE,154,0.0,2.0,79,0.00,,,0.00,,2013-01-11 09:32:00,
2013-01-11 01:42:00,14.0,9.0,29.88,SSE,154,0.0,2.0,79,0.00,,,0.00,,2013-01-11 09:42:00,
2013-01-11 01:52:00,14.0,9.0,29.89,South,191,0.0,2.0,79,0.00,,,0.00,,2013-01-11 09:52:00,
2013-01-11 02:02:00,14.0,9.0,29.90,SSE,164,0.0,1.0,80,0.00,,,0.00,,2013-01-11 10:02:00,
2013-01-11 02:11:00,14.0,9.0,29.90,SSE,164,0.0,1.0,80,0.00,,,0.00,,2013-01-11 10:11:00,
2013-01-11 02:22:00,14.0,9.0,29.90,SW,217,0.0,1.0,80,0.00,,,0.00,,2013-01-11 10:22:00,
2013-01-11 02:32:00,14.0,9.0,29.89,SW,222,0.0,0.0,80,0.00,,,0.00,,2013-01-11 10:32:00,
2013-01-11 02:42:00,14.0,9.0,29.89,SW,222,0.0,0.0,80,0.00,,,0.00,,2013-01-11 10:42:00,
2013-01-11 02:52:00,14.0,9.0,29.89,South,169,0.0,1.0,79,0.00,,,0.00,,2013-01-11 10:52:00,
2013-01-11 03:02:00,13.0,8.0,29.89,WNW,287,0.0,1.0,79,0.00,,,0.00,,2013-01-11 11:02:00,
2013-01-11 03:11:00,13.0,8.0,29.89,WNW,287,0.0,1.0,79,0.00,,,0.00,,2013-01-11 11:11:00,
2013-01-11 03:22:00,13.0,8.0,29.89,South,188,1.0,6.0,79,0.00,,,0.00,,2013-01-11 11:22:00,
2013-01-11 03:32:00,13.0,8.0,29.90,SE,141,0.0,2.0,79,0.00,,,0.00,,2013-01-11 11:32:00,
2013-01-11 03:42:00,13.0,8.0,29.90,SE,141,0.0,2.0,79,0.00,,,0.00,,2013-01-11 11:42:00,
2013-01-11 03:53:00,13.0,8.0,29.89,South,182,0.0,2.0,79,0.00,,,0.00,,2013-01-11 11:53:00,
2013-01-11 04:02:00,13.0,8.0,29.89,South,184,0.0,4.0,79,0.00,,,0.00,,2013-01-11 12:02:00,
2013-01-11 04:12:00,13.0,8.0,29.89,South,184,0.0,4.0,79,0.00,,,0.00,,2013-01-11 12:12:00,
2013-01-11 04:22:00,13.0,8.0,29.90,South,191,1.0,6.0,79,0.00,,,0.00,,2013-01-11 12:22:00,
2013-01-11 04:32:00,13.0,8.0,29.91,SW,216,0.0,0.0,79,0.00,,,0.00,,2013-01-11 12:32:00,
2013-01-11 04:42:00,13.0,8.0,29.91,SW,216,0.0,0.0,79,0.00,,,0.00,,2013-01-11 12:42:00,
2013-01-11 04:52:00,13.0,8.0,29.91,South,178,1.0,5.0,80,0.00,,,0.00,,2013-01-11 12:52:00,
2013-01-11 05:02:00,13.0,8.0,29.91,SSW,193,1.0,6.0,79,0.00,,,0.00,,2013-01-11 13:02:00,
2013-01-11 05:12:00,13.0,8.0,29.91,SSW,193,1.0,6.0,79,0.00,,,0.00,,2013-01-11 13:12:00,
2013-01-11 05:22:00,13.0,8.0,29.91,WSW,248,1.0,6.0,79,0.00,,,0.00,,2013-01-11 13:22:00,
2013-01-11 05:32:00,12.0,7.0,29.91,WSW,247,0.0,1.0,79,0.00,,,0.00,,2013-01-11 13:32:00,
2013-01-11 05:42:00,12.0,7.0,29.91,WSW,247,0.0,1.0,79,0.00,,,0.00,,2013-01-11 13:42:00,
2013-01-11 05:52:00,12.0,7.0,29.92,SW,233,1.0,5.0,80,0.00,,,0.00,,2013-01-11 13:52:00,
2013-01-11 06:02:00,12.0,7.0,29.92,SSW,193,0.0,5.0,79,0.00,,,0.00,,2013-01-11 14:02:00,
2013-01-11 06:11:00,12.0,7.0,29.92,SSW,193,0.0,5.0,79,0.00,,,0.00,,2013-01-11 14:11:00,
2013-01-11 06:22:00,12.0,7.0,29.92,SW,219,1.0,5.0,79,0.00,,,0.00,,2013-01-11 14:22:00,
2013-01-11 06:32:00,12.0,7.0,29.92,SW,229,0.0,2.0,79,0.00,,,0.00,,2013-01-11 14:32:00,
2013-01-11 06:42:00,12.0,7.0,29.92,SW,220,1.0,5.0,79,0.00,,,0.00,,2013-01-11 14:42:00,
2013-01-11 06:52:00,12.0,7.0,29.92,SW,220,1.0,5.0,79,0.00,,,0.00,,2013-01-11 14:52:00,
2013-01-11 07:02:00,12.0,7.0,29.92,SSW,196,0.0,4.0,79,0.00,,,0.00,,2013-01-11 15:02:00,
2013-01-11 07:12:00,12.0,7.0,29.93,SSW,196,0.0,0.0,79,0.00,,,0.00,,2013-01-11 15:12:00,
2013-01-11 07:22:00,12.0,7.0,29.93,SSW,196,0.0,0.0,79,0.00,,,0.00,,2013-01-11 15:22:00,
2013-01-11 07:32:00,12.0,7.0,29.93,SW,224,1.0,6.0,79,0.00,,,0.00,,2013-01-11 15:32:00,
2013-01-11 07:42:00,12.0,7.0,29.93,SW,224,1.0,6.0,79,0.00,,,0.00,,2013-01-11 15:42:00,
2013-01-11 07:53:00,13.0,7.0,29.93,South,191,0.0,0.0,78,0.00,,,0.00,,2013-01-11 15:53:00,
2013-01-11 08:02:00,13.0,7.0,29.93,WSW,237,0.0,0.0,77,0.00,,,0.00,,2013-01-11 16:02:00,
2013-01-11 08:12:00,15.0,9.0,29.93,SW,224,1.0,1.0,77,0.00,,,0.00,,2013-01-11 16:12:00,
2013-01-11 08:22:00,15.0,9.0,29.93,SW,224,1.0,1.0,77,0.00,,,0.00,,2013-01-11 16:22:00,
2013-01-11 08:32:00,15.0,9.0,29.94,South,186,1.0,2.0,77,0.00,,,0.00,,2013-01-11 16:32:00,
2013-01-11 08:42:00,15.0,9.0,29.94,South,186,1.0,2.0,77,0.00,,,0.00,,2013-01-11 16:42:00,
2013-01-11 08:52:00,17.0,10.0,29.94,SW,216,1.0,6.0,75,0.00,,,0.00,,2013-01-11 16:52:00,
2013-01-11 09:03:00,17.0,10.0,29.94,SW,234,2.0,6.0,74,0.00,,,0.00,,2013-01-11 17:03:00,
2013-01-11 09:12:00,18.0,11.0,29.95,SSW,210,1.0,7.0,73,0.00,,,0.00,,2013-01-11 17:12:00,
2013-01-11 09:22:00,18.0,11.0,29.95,SSW,210,1.0,7.0,73,0.00,,,0.00,,2013-01-11 17:22:00,
2013-01-11 09:32:00,18.0,11.0,29.95,SW,224,3.0,7.0,73,0.00,,,0.00,,2013-01-11 17:32:00,
2013-01-11 09:42:00,18.0,11.0,29.95,SW,224,3.0,7.0,73,0.00,,,0.00,,2013-01-11 17:42:00,
2013-01-11 09:53:00,19.0,11.0,29.94,SW,223,2.0,9.0,69,0.00,,,0.00,,2013-01-11 17:53:00,
2013-01-11 10:02:00,20.0,11.0,29.94,SSW,213,0.0,6.0,66,0.00,,,0.00,,2013-01-11 18:02:00,
2013-01-11 10:12:00,20.0,11.0,29.94,SSW,213,0.0,6.0,66,0.00,,,0.00,,2013-01-11 18:12:00,
2013-01-11 10:22:00,20.0,10.0,29.95,SW,222,2.0,6.0,64,0.00,,,0.00,,2013-01-11 18:22:00,
2013-01-11 10:32:00,20.0,10.0,29.94,South,191,2.0,7.0,64,0.00,,,0.00,,2013-01-11 18:32:00,
2013-01-11 10:42:00,20.0,10.0,29.94,South,191,2.0,7.0,64,0.00,,,0.00,,2013-01-11 18:42:00,
2013-01-11 10:53:00,20.0,9.0,29.94,NNW,329,3.0,11.0,62,0.00,,,0.01,,2013-01-11 18:53:00,
2013-01-11 11:02:00,21.0,10.0,29.93,SW,229,2.0,2.0,62,0.00,,,0.01,,2013-01-11 19:02:00,
2013-01-11 11:12:00,21.0,10.0,29.93,SW,229,2.0,2.0,62,0.00,,,0.01,,2013-01-11 19:12:00,
2013-01-11 11:22:00,21.0,10.0,29.93,SSW,199,1.0,5.0,62,0.00,,,0.01,,2013-01-11 19:22:00,
2013-01-11 11:32:00,21.0,10.0,29.93,SSW,199,1.0,5.0,62,0.00,,,0.01,,2013-01-11 19:32:00,
2013-01-11 11:42:00,21.0,10.0,29.93,SSW,199,1.0,5.0,62,0.00,,,0.01,,2013-01-11 19:42:00,
2013-01-11 11:52:00,21.0,10.0,29.92,South,179,2.0,4.0,62,0.00,,,0.01,,2013-01-11 19:52:00,
2013-01-11 12:02:00,21.0,9.0,29.92,SW,227,4.0,12.0,58,0.00,,,0.02,,2013-01-11 20:02:00,
2013-01-11 12:12:00,21.0,9.0,29.92,SW,227,4.0,12.0,58,0.00,,,0.02,,2013-01-11 20:12:00,
2013-01-11 12:22:00,22.0,11.0,29.92,SSW,203,2.0,12.0,62,0.00,,,0.02,,2013-01-11 20:22:00,
2013-01-11 12:32:00,21.0,9.0,29.90,SW,227,2.0,15.0,58,0.00,,,0.02,,2013-01-11 20:32:00,
2013-01-11 12:42:00,21.0,9.0,29.90,SW,227,2.0,15.0,58,0.00,,,0.02,,2013-01-11 20:42:00,
2013-01-11 12:52:00,21.0,9.0,29.90,SSW,212,2.0,10.0,60,0.00,,,0.02,,2013-01-11 20:52:00,
2013-01-11 13:02:00,22.0,11.0,29.90,West,263,0.0,5.0,61,0.00,,,0.02,,2013-01-11 21:02:00,
2013-01-11 13:12:00,21.0,10.0,29.90,SSW,205,1.0,12.0,61,0.00,,,0.02,,2013-01-11 21:12:00,
2013-01-11 13:22:00,21.0,10.0,29.90,SSW,205,1.0,12.0,61,0.00,,,0.02,,2013-01-11 21:22:00,
2013-01-11 13:32:00,20.0,8.0,29.89,West,265,0.0,1.0,59,0.00,,,0.02,,2013-01-11 21:32:00,
2013-01-11 13:42:00,20.0,8.0,29.89,West,265,0.0,1.0,59,0.00,,,0.02,,2013-01-11 21:42:00,
2013-01-11 13:52:00,20.0,8.0,29.89,South,186,3.0,12.0,59,0.00,,,0.02,,2013-01-11 21:52:00,
2013-01-11 14:02:00,21.0,9.0,29.89,SSW,198,2.0,5.0,59,0.00,,,0.02,,2013-01-11 22:02:00,
2013-01-11 14:12:00,21.0,9.0,29.89,SSW,198,2.0,5.0,59,0.00,,,0.02,,2013-01-11 22:12:00,
2013-01-11 14:22:00,23.0,11.0,29.89,West,265,0.0,7.0,59,0.00,,,0.03,,2013-01-11 22:22:00,
2013-01-11 14:33:00,22.0,10.0,29.89,SW,215,1.0,4.0,58,0.00,,,0.03,,2013-01-11 22:33:00,
2013-01-11 14:42:00,22.0,10.0,29.89,SW,215,1.0,4.0,58,0.00,,,0.03,,2013-01-11 22:42:00,
2013-01-11 14:52:00,21.0,9.0,29.89,SW,224,1.0,6.0,58,0.00,,,0.03,,2013-01-11 22:52:00,
2013-01-11 15:02:00,21.0,9.0,29.88,WNW,299,2.0,7.0,58,0.00,,,0.03,,2013-01-11 23:02:00,
2013-01-11 15:12:00,21.0,9.0,29.88,WNW,299,2.0,7.0,58,0.00,,,0.03,,2013-01-11 23:12:00,
2013-01-11 15:22:00,21.0,9.0,29.88,SSW,200,0.0,0.0,58,0.00,,,0.03,,2013-01-11 23:22:00,
2013-01-11 15:32:00,20.0,9.0,29.88,SW,224,1.0,6.0,61,0.00,,,0.03,,2013-01-11 23:32:00,
2013-01-11 15:42:00,20.0,9.0,29.88,SW,224,1.0,6.0,61,0.00,,,0.03,,2013-01-11 23:42:00,
2013-01-11 15:53:00,20.0,9.0,29.88,WNW,289,2.0,6.0,61,0.00,,,0.03,,2013-01-11 23:53:00,
2013-01-11 16:02:00,20.0,9.0,29.88,WSW,244,1.0,0.0,61,0.00,,,0.03,,2013-01-12 00:02:00,
2013-01-11 16:12:00,20.0,9.0,29.88,SSW,208,0.0,1.0,61,0.00,,,0.03,,2013-01-12 00:12:00,
2013-01-11 16:22:00,20.0,9.0,29.88,SSW,208,0.0,1.0,61,0.00,,,0.03,,2013-01-12 00:22:00,
2013-01-11 16:32:00,19.0,7.0,29.87,West,272,3.0,9.0,59,0.00,,,0.03,,2013-01-12 00:32:00,
2013-01-11 16:42:00,19.0,7.0,29.87,West,272,3.0,9.0,59,0.00,,,0.03,,2013-01-12 00:42:00,
2013-01-11 16:52:00,19.0,7.0,29.87,SW,219,2.0,9.0,59,0.00,,,0.03,,2013-01-12 00:52:00,
2013-01-11 17:02:00,18.0,6.0,29.87,SW,234,0.0,2.0,59,0.00,,,0.03,,2013-01-12 01:02:00,
2013-01-11 17:12:00,18.0,6.0,29.87,SW,234,0.0,2.0,59,0.00,,,0.03,,2013-01-12 01:12:00,
2013-01-11 17:22:00,18.0,9.0,29.87,SSW,196,0.0,0.0,66,0.00,,,0.03,,2013-01-12 01:22:00,
2013-01-11 17:32:00,18.0,9.0,29.87,SW,217,0.0,4.0,66,0.00,,,0.03,,2013-01-12 01:32:00,
2013-01-11 17:42:00,18.0,9.0,29.87,SW,217,0.0,4.0,66,0.00,,,0.03,,2013-01-12 01:42:00,
2013-01-11 17:52:00,17.0,8.0,29.87,SSW,200,0.0,2.0,66,0.00,,,0.03,,2013-01-12 01:52:00,
2013-01-11 18:02:00,17.0,8.0,29.87,SW,217,0.0,0.0,66,0.00,,,0.03,,2013-01-12 02:02:00,
2013-01-11 18:11:00,17.0,8.0,29.87,SW,217,0.0,0.0,66,0.00,,,0.03,,2013-01-12 02:11:00,
2013-01-11 18:22:00,17.0,8.0,29.87,WSW,241,0.0,0.0,66,0.00,,,0.03,,2013-01-12 02:22:00,
2013-01-11 18:32:00,17.0,8.0,29.87,SSW,209,0.0,0.0,66,0.00,,,0.03,,2013-01-12 02:32:00,
2013-01-11 18:42:00,17.0,8.0,29.87,SSW,209,0.0,0.0,66,0.00,,,0.03,,2013-01-12 02:42:00,
2013-01-11 18:53:00,17.0,11.0,29.87,SW,229,0.0,2.0,76,0.00,,,0.03,,2013-01-12 02:53:00,
2013-01-11 19:02:00,17.0,11.0,29.87,SW,229,0.0,2.0,76,0.00,,,0.03,,2013-01-12 03:02:00,
2013-01-11 19:11:00,17.0,11.0,29.87,SW,229,0.0,2.0,76,0.00,,,0.03,,2013-01-12 03:11:00,
2013-01-11 19:22:00,16.0,10.0,29.87,South,174,0.0,0.0,78,0.00,,,0.03,,2013-01-12 03:22:00,
2013-01-11 19:33:00,16.0,10.0,29.87,SSW,205,0.0,1.0,78,0.00,,,0.03,,2013-01-12 03:33:00,
2013-01-11 19:43:00,16.0,10.0,29.87,SSW,205,0.0,1.0,78,0.00,,,0.03,,2013-01-12 03:43:00,
2013-01-11 19:53:00,16.0,11.0,29.87,SSW,209,0.0,2.0,79,0.00,,,0.03,,2013-01-12 03:53:00,
2013-01-11 20:02:00,16.0,11.0,29.87,South,189,0.0,5.0,79,0.00,,,0.03,,2013-01-12 04:02:00,
2013-01-11 20:12:00,16.0,11.0,29.87,South,189,0.0,5.0,79,0.00,,,0.03,,2013-01-12 04:12:00,
2013-01-11 20:22:00,16.0,11.0,29.87,SSW,213,1.0,9.0,79,0.00,,,0.03,,2013-01-12 04:22:00,
2013-01-11 20:32:00,16.0,11.0,29.87,South,179,0.0,2.0,79,0.00,,,0.03,,2013-01-12 04:32:00,
2013-01-11 20:42:00,16.0,11.0,29.87,South,179,0.0,2.0,79,0.00,,,0.03,,2013-01-12 04:42:00,
2013-01-11 20:52:00,16.0,11.0,29.87,SW,226,0.0,0.0,79,0.00,,,0.03,,2013-01-12 04:52:00,
2013-01-11 21:03:00,16.0,11.0,29.87,WNW,302,0.0,2.0,79,0.00,,,0.03,,2013-01-12 05:03:00,
2013-01-11 21:12:00,16.0,11.0,29.87,WNW,302,0.0,2.0,79,0.00,,,0.03,,2013-01-12 05:12:00,
2013-01-11 21:22:00,16.0,11.0,29.87,SW,217,0.0,0.0,79,0.00,,,0.03,,2013-01-12 05:22:00,
2013-01-11 21:32:00,15.0,10.0,29.87,SW,217,0.0,0.0,79,0.00,,,0.03,,2013-01-12 05:32:00,
2013-01-11 21:42:00,15.0,10.0,29.87,SW,217,0.0,0.0,79,0.00,,,0.03,,2013-01-12 05:42:00,
2013-01-11 21:52:00,15.0,9.0,29.87,SW,217,0.0,1.0,77,0.00,,,0.03,,2013-01-12 05:52:00,
2013-01-11 22:02:00,15.0,9.0,29.88,NW,306,0.0,0.0,77,0.00,,,0.03,,2013-01-12 06:02:00,
2013-01-11 22:12:00,15.0,9.0,29.88,NW,306,0.0,0.0,77,0.00,,,0.03,,2013-01-12 06:12:00,
2013-01-11 22:22:00,15.0,9.0,29.88,West,278,0.0,1.0,77,0.00,,,0.03,,2013-01-12 06:22:00,
2013-01-11 22:32:00,15.0,9.0,29.88,West,278,0.0,1.0,77,0.00,,,0.03,,2013-01-12 06:32:00,
2013-01-11 22:42:00,15.0,9.0,29.88,West,278,0.0,1.0,77,0.00,,,0.03,,2013-01-12 06:42:00,
2013-01-11 22:52:00,14.0,8.0,29.87,West,272,0.0,0.0,77,0.00,,,0.03,,2013-01-12 06:52:00,
2013-01-11 23:02:00,14.0,8.0,29.88,West,272,0.0,0.0,77,0.00,,,0.03,,2013-01-12 07:02:00,
2013-01-11 23:12:00,12.0,6.0,29.88,West,272,0.0,0.0,77,0.00,,,0.03,,2013-01-12 07:12:00,
2013-01-11 23:21:00,12.0,6.0,29.88,West,272,0.0,0.0,77,0.00,,,0.03,,2013-01-12 07:21:00,
2013-01-11 23:32:00,12.0,6.0,29.88,West,272,0.0,0.0,77,0.00,,,0.03,,2013-01-12 07:32:00,
2013-01-11 23:42:00,12.0,6.0,29.88,West,272,0.0,0.0,77,0.00,,,0.03,,2013-01-12 07:42:00,
2013-01-11 23:52:00,11.0,6.0,29.88,West,272,0.0,0.0,79,0.00,,,0.03,,2013-01-12 07:52:00,